Location: Unspecified
(0.0000°N, 0.0000°E)
Time: 05:51:09
(UTC+00:00)

Vanguard 3 - Pass Details

Date: 14 April 2021
Orbit: 507 x 3262 km, 33.4° (Epoch: 17 May)

Event Time Altitude Azimuth Distance (km) Brightness Sun altitude
Rises 20:32:08 0° 223° (SW) 6,667 12.2 -37.4°
Reaches altitude 10° 20:37:58 10° 213° (SSW) 5,236 11.4 -38.8°
Enters shadow 20:46:14 27° 184° (S) 3,325 10.1 -40.8°
